This demonstration page uses our WeatherBlox Daily Observations layout. Learn more.

Left ArrowRight Arrow

Hourly Observations for December 14, 2016

Temp ( °F °C ) Dew Point ( °F °C ) Humidity (%) Winds ( mph kmh ) Pressure ( in mb ) Visibility ( mi km ) Precip ( " mm )
12:53 am 00:53 Clear -2 -18.9 -9 -22.8 72 72 SW 16 26 30.45 1031 10 16 0.00 0.00
1:53 am 01:53 Clear -2 -18.9 -8 -22.2 75 75 SW 16 26 30.45 1031 10 16 0.00 0.00
2:53 am 02:53 Clear 0 -17.8 -7 -21.7 72 72 SW 18 30 30.46 1032 10 16 0.00 0.00
3:53 am 03:53 Clear 0 -17.8 -8 -22.2 69 69 SW 17 28 30.47 1032 10 16 0.00 0.00
4:53 am 04:53 Clear 0 -17.8 -8 -22.2 69 69 SW 16 26 30.47 1032 10 16 0.00 0.00
5:53 am 05:53 Clear -1 -18.3 -9 -22.8 68 68 SW 12 19 30.46 1032 10 16 0.00 0.00
6:53 am 06:53 Clear -8 -22.2 -13 -25 78 78 WSW 14 22 30.48 1032 10 16 0.00 0.00
7:53 am 07:53 Clear -8 -22.2 -13 -25 78 78 WSW 15 24 30.48 1032 10 16 0.00 0.00
8:53 am 08:53 Sunny -8 -22.2 -14 -25.6 74 74 WSW 13 20 30.50 1033 10 16 0.00 0.00
9:53 am 09:53 Sunny -2 -18.9 -10 -23.3 68 68 SW 10 17 30.50 1033 10 16 0.00 0.00
10:53 am 10:53 Sunny 2 -16.7 -6 -21.1 69 69 SW 9 15 30.49 1032 10 16 0.00 0.00
11:53 am 11:53 Sunny 4 -15.6 -5 -20.6 66 66 WSW 10 17 30.47 1032 10 16 0.00 0.00
12:53 pm 12:53 Sunny 6 -14.4 -3 -19.4 66 66 WSW 12 19 30.45 1031 10 16 0.00 0.00
1:53 pm 13:53 Sunny 7 -13.9 -2 -18.9 66 66 SW 14 22 30.42 1030 10 16 0.00 0.00
2:53 pm 14:53 Sunny 7 -13.9 -2 -18.9 66 66 SW 10 17 30.39 1029 10 16 0.00 0.00
3:53 pm 15:53 Sunny 4 -15.6 -4 -20 69 69 Calm 30.40 1029 10 16 0.00 0.00
4:53 pm 16:53 Clear 1 -17.2 -5 -20.6 75 75 SE 3 6 30.40 1030 10 16 0.00 0.00
5:53 pm 17:53 Clear -3 -19.4 -7 -21.7 82 82 Calm 30.38 1029 10 16 0.00 0.00
6:53 pm 18:53 Clear -5 -20.6 -9 -22.8 83 83 Calm 30.38 1029 10 16 0.00 0.00
7:53 pm 19:53 Clear -9 -22.8 -13 -25 82 82 Calm 30.36 1028 10 16 0.00 0.00
8:53 pm 20:53 Clear -3 -19.4 -8 -22.2 79 79 ENE 7 11 30.35 1028 10 16 0.00 0.00
9:53 pm 21:53 Clear -2 -18.9 -7 -21.7 79 79 E 10 17 30.32 1027 10 16 0.00 0.00
10:53 pm 22:53 Clear -2 -18.9 -7 -21.7 79 79 ENE 12 19 30.29 1026 10 16 0.00 0.00
11:53 pm 23:53 Clear -2 -18.9 -7 -21.7 79 79 ENE 13 20 30.26 1025 10 16 0.00 0.00

Powered by AerisWeather